EHI
30 29 27 23 22 21 21 20 18 18 18 17 15 13 11 12 13 12 9 8 9 11 12 13 13 12 9 7 6 4 4 4 3 3 3 3 3 3 3 3 3 3 3
28 27 25 23 22 20 20 19 17 16 15 15 13 11 10 10 11 11 9 8 9 10 11 12 13 12 11 9 7 6 5 4 3 3 3 3 3 3 3 3 3 3 3
28 25 23 22 20 19 19 18 16 15 14 14 12 9 7 7 6 7 9 9 9 10 10 11 12 12 11 10 9 8 6 4 3 3 3 3 3 3 3 3 3 2 1
25 23 21 19 18 18 19 18 16 16 16 16 13 8 5 4 2 3 6 8 9 9 9 10 10 10 9 8 9 8 6 4 3 3 3 3 3 4 4 3 2 1 0
19 20 20 19 18 20 22 21 19 18 17 17 14 9 5 3 1 1 3 5 6 7 8 9 8 6 5 5 5 5 5 5 4 4 3 3 4 5 5 3 1 0 0
15 16 18 19 19 21 23 24 23 21 18 16 14 10 7 3 1 1 2 4 4 5 7 7 5 2 2 1 1 1 2 4 4 4 4 4 5 5 5 2 1 1 0
11 13 16 19 20 20 21 22 23 21 19 16 13 12 9 4 0 0 1 2 3 5 6 6 3 2 1 1 1 0 0 1 2 3 3 4 4 4 4 3 2 2 1
7 9 14 18 19 19 19 19 20 20 19 15 13 12 9 4 1 0 1 2 4 5 6 5 4 4 3 3 2 2 1 1 1 1 1 2 2 3 3 3 3 3 3
4 6 12 17 19 19 19 19 19 19 18 15 12 10 8 5 1 0 1 4 5 6 6 5 4 4 3 2 3 4 4 3 1 1 0 0 1 1 2 3 3 3 3
3 5 10 15 17 18 19 21 21 19 15 12 9 7 7 5 2 0 2 5 6 6 5 4 3 3 2 1 3 5 6 5 3 1 1 0 0 0 1 2 3 3 3
3 5 8 12 15 16 18 21 21 17 12 8 5 5 6 4 2 0 1 4 6 6 4 3 3 1 1 0 2 4 5 5 4 3 2 1 1 0 0 1 2 3 3
4 6 10 12 13 14 17 18 18 14 10 6 4 4 4 4 2 1 1 3 5 5 4 3 2 1 0 0 1 2 2 2 3 3 3 3 2 1 0 0 1 2 2
6 10 13 14 13 12 13 14 12 10 8 6 4 4 4 4 3 1 0 1 2 3 3 2 1 0 0 0 0 0 0 0 1 1 3 3 3 1 0 0 0 1 1
9 12 14 15 14 12 11 9 7 7 7 7 6 6 6 6 4 2 1 0 0 1 1 1 1 0 0 0 0 0 0 0 0 1 2 3 3 2 0 0 0 0 0
11 11 12 13 12 10 8 5 5 6 6 6 6 6 6 6 4 2 1 0 0 0 0 1 1 1 1 1 1 0 0 0 0 0 1 1 2 1 0 1 1 0 0
12 10 9 10 10 7 5 4 4 4 4 4 4 4 5 4 2 1 1 0 0 0 0 1 2 2 2 2 1 1 1 1 0 0 0 0 0 0 0 1 2 1 0
12 10 9 9 8 5 3 3 3 2 1 1 1 1 2 1 0 0 0 0 0 0 0 0 1 1 1 1 1 2 2 1 0 0 0 0 0 0 0 1 2 1 1
13 11 9 8 6 5 4 3 3 3 2 1 1 0 0 0 0 0 0 0 0 0 0 0 0 0 0 0 0 1 1 0 0 0 0 0 0 0 0 0 1 1 0
11 9 8 7 6 5 5 4 3 3 3 3 2 1 0 0 0 0 0 0 0 0 0 0 0 0 0 0 0 0 0 0 0 0 0 0 0 0 0 0 0 0 0
7 5 4 5 5 4 4 4 3 3 3 3 2 1 0 0 0 0 0 0 0 0 0 0 0 0 0 0 0 0 0 0 0 0 0 0 0 0 0 0 0 0 0
3 2 2 3 4 4 3 2 1 1 2 2 1 0 0 0 0 0 0 0 0 0 0 0 0 0 0 0 0 0 0 0 0 0 0 0 0 0 0 0 0 0 0
2 1 1 2 3 3 2 1 0 0 1 1 0 0 0 0 0 0 0 0 0 0 0 0 0 0 0 0 0 0 0 0 0 0 0 0 0 0 0 0 0 0 0
2 1 1 1 2 1 1 0 0 0 0 0 0 0 0 0 0 0 0 0 0 0 0 0 0 0 0 0 0 0 0 0 0 0 0 0 0 0 0 0 0 0 0
1 1 1 1 0 0 0 0 0 0 0 0 0 0 0 0 0 0 0 0 0 0 0 1 1 0 0 0 0 0 0 0 0 0 0 0 0 0 0 0 0 0 0
0 0 1 0 0 0 0 0 0 0 0 0 0 0 0 0 0 0 0 0 0 0 0 1 1 0 0 0 0 0 0 0 0 0 0 0 0 0 0 0 0 0 0
0 1 1 1 0 0 0 0 0 0 0 0 0 0 0 0 0 0 0 0 0 0 0 1 1 0 0 0 0 0 0 0 0 0 0 0 0 0 0 0 0 0 0
Wind_Speed
4 4 4 5 5 5 4 4 4 4 4 5 5 5 5 5 6 6 6 6 6 5 5 5 5 5 4 3 4 4 4 4 5 4 3 2 3 5 3 4 5 5 5
3 4 5 4 5 5 5 4 4 4 5 5 5 5 5 5 5 6 7 6 6 6 5 5 5 4 5 4 3 4 4 4 5 6 4 4 4 4 4 5 5 4 4
3 4 5 5 5 5 5 4 4 4 4 4 5 5 5 5 5 5 5 5 6 6 5 5 5 5 5 4 5 4 4 4 4 5 5 3 3 3 4 5 5 4 5
3 3 4 4 5 5 4 4 4 4 5 5 4 4 4 5 5 5 5 5 5 5 4 5 5 5 5 5 5 5 5 5 4 5 5 4 3 3 4 5 4 4 4
3 3 3 3 4 5 5 5 5 5 5 5 5 5 4 4 3 4 4 5 4 4 4 4 4 4 3 4 4 4 4 4 4 4 5 4 3 3 3 4 4 4 4
4 4 3 3 4 4 5 5 5 5 5 5 5 5 5 3 2 1 4 4 5 5 4 4 5 5 5 5 4 4 5 5 5 5 5 4 4 4 3 4 5 5 5
4 3 3 4 4 4 5 5 5 5 6 5 5 6 5 4 3 3 4 5 5 4 4 4 5 3 5 5 6 7 7 7 7 7 7 6 5 4 5 6 5 6 6
4 4 4 4 4 4 5 5 5 5 5 5 6 6 5 5 5 4 5 6 4 4 5 5 5 4 3 4 5 5 5 5 6 7 6 6 5 4 5 6 6 6 7
4 4 4 4 5 5 5 5 5 5 5 6 6 6 6 5 6 6 5 5 4 5 5 4 5 4 2 3 5 5 5 5 6 7 6 6 5 5 5 5 5 6 6
3 3 4 4 5 5 5 5 4 5 5 5 5 5 6 5 6 7 7 5 4 4 4 5 4 4 3 4 6 6 6 6 5 5 6 7 7 7 8 7 6 6 6
3 3 3 4 5 5 5 4 4 5 5 5 5 5 5 5 7 7 7 5 4 4 4 4 3 5 5 6 7 6 6 6 7 6 6 5 5 5 5 6 6 7 7
3 3 3 3 4 3 4 4 4 4 5 5 5 5 4 5 5 7 8 7 5 5 5 4 2 5 5 7 7 5 5 6 6 6 5 5 5 4 4 5 6 7 7
3 3 3 3 3 3 4 5 5 5 5 4 4 4 4 3 4 8 9 8 7 6 4 2 3 6 7 8 9 8 7 6 6 6 6 5 5 4 5 5 6 7 8
3 3 3 3 3 2 3 3 4 4 4 4 4 4 3 3 3 4 4 5 7 6 4 4 7 8 8 7 6 7 6 5 5 6 6 5 4 4 5 5 5 5 6
3 3 3 3 3 3 3 2 3 2 2 4 4 4 4 4 1 1 3 4 3 3 3 4 4 4 5 4 4 5 5 5 6 6 6 5 5 5 5 4 5 5 6
4 4 3 3 2 3 2 1 1 1 1 1 3 3 2 1 2 3 3 3 3 4 5 5 4 5 5 4 5 4 5 5 5 5 5 5 5 5 5 4 5 6 6
4 3 3 3 3 3 3 2 1 1 2 2 3 2 2 2 2 4 4 4 5 6 6 5 4 4 4 4 4 4 4 4 4 4 5 5 5 5 5 5 6 6 6
4 3 3 3 3 3 3 3 3 2 2 1 2 4 4 3 3 4 4 4 4 5 5 4 4 3 4 4 4 4 4 4 4 4 5 5 5 6 6 6 6 6 6
4 3 3 3 3 3 3 3 3 3 2 1 1 3 4 4 4 5 5 4 3 3 3 3 3 3 3 3 3 3 4 4 4 5 5 5 5 6 6 6 6 5 7
3 2 3 3 3 3 3 2 2 2 2 2 2 1 1 2 2 2 3 3 3 3 3 3 3 3 3 3 3 3 3 4 4 5 5 5 5 6 6 7 6 6 6
2 2 4 4 3 2 1 2 2 2 2 2 1 1 0 3 2 2 2 2 2 3 3 3 3 3 3 3 3 3 4 4 4 4 4 4 5 5 6 6 6 6 6
2 1 2 2 1 1 1 2 2 2 2 2 2 2 4 4 2 2 2 2 2 2 2 3 3 3 3 3 3 3 4 4 4 4 4 5 5 5 5 5 5 5 5
1 1 1 1 1 1 2 2 2 2 2 2 2 1 2 2 2 2 2 2 2 2 2 2 3 3 3 3 3 3 4 4 4 4 5 5 5 5 5 5 6 6 6
1 1 1 1 1 2 2 2 2 2 2 2 2 2 2 2 2 2 2 2 2 2 2 2 2 3 4 3 3 2 3 4 5 4 6 6 6 6 5 5 6 6 6
1 1 1 1 1 2 2 2 2 2 2 2 2 2 2 2 2 2 2 2 2 2 2 2 2 2 3 4 3 3 3 3 3 5 5 6 6 6 6 6 5 5 5
0 1 1 1 1 1 1 2 2 2 2 2 2 2 2 2 1 1 1 2 2 2 2 2 3 3 3 3 3 3 2 2 2 4 6 5 5 5 5 5 5 5 5
Wind_Direction
201 199 199 196 197 198 199 202 201 204 201 202 207 208 210 215 217 218 228 222 224 232 239 241 244 261 261 258 255 261 262 263 267 275 273 268 258 269 267 260 249 241 210
198 199 200 197 195 199 198 198 196 199 202 204 207 210 213 215 218 219 224 226 228 233 239 245 248 243 242 254 258 257 261 268 266 270 271 269 260 258 260 263 262 255 254
199 197 196 198 198 204 204 198 198 200 206 208 209 210 214 216 216 222 229 230 229 232 237 242 244 243 245 247 250 258 260 257 260 267 269 271 272 272 267 261 260 262 263
211 202 198 198 199 204 206 203 201 200 205 209 209 213 218 220 221 224 228 232 234 237 238 238 239 239 244 246 244 248 256 262 258 263 269 266 262 261 260 261 260 248 258
223 212 210 205 203 203 203 204 204 202 204 206 210 213 218 217 218 227 230 227 232 233 233 235 232 234 252 257 263 259 256 256 255 257 261 263 264 271 266 276 277 273 255
230 225 212 210 210 208 204 201 201 204 207 207 212 213 215 211 157 226 256 235 231 235 238 238 227 210 212 214 239 256 266 260 264 266 265 268 271 272 276 279 282 279 277
234 229 221 218 217 216 211 204 203 204 206 210 213 215 215 189 162 198 246 247 235 235 237 242 245 220 217 223 214 217 230 239 251 263 272 280 281 282 284 276 276 285 290
233 230 226 223 222 220 217 214 211 208 209 211 214 214 213 188 173 197 230 232 234 229 229 233 237 237 229 243 238 230 235 233 235 243 260 269 277 288 276 274 282 274 269
234 235 235 231 225 221 219 218 217 216 216 216 213 214 214 195 175 189 223 223 222 229 229 230 239 233 187 241 244 240 244 245 225 225 241 255 268 266 269 268 264 265 268
260 252 243 238 236 230 225 224 221 219 219 219 215 215 216 212 176 185 217 228 220 231 223 216 211 227 187 223 242 246 250 258 262 231 222 230 237 232 224 241 257 264 273
271 256 252 246 242 232 225 223 220 219 217 215 215 214 214 212 175 179 207 235 230 236 239 234 193 171 195 219 241 249 255 269 264 252 242 239 236 236 232 232 240 251 262
262 247 245 247 249 233 222 221 220 219 215 210 209 216 211 199 183 178 196 224 257 246 248 248 179 170 208 226 235 246 246 255 257 252 247 246 245 246 248 246 239 242 250
254 243 237 237 240 239 231 220 215 214 222 218 213 217 213 200 177 174 191 212 231 247 255 263 236 212 220 230 225 227 235 242 249 251 249 249 251 251 252 245 241 238 240
241 234 229 227 225 223 239 231 228 226 226 225 226 227 222 208 201 176 192 210 215 228 246 220 212 220 231 245 232 217 229 243 253 258 258 257 255 247 242 245 246 244 245
231 226 226 219 211 222 231 257 249 248 276 260 248 239 234 229 173 149 231 231 238 238 249 249 245 235 232 239 245 241 235 232 236 247 254 258 257 257 254 250 250 253 253
227 222 224 220 212 226 222 217 23 281 83 254 271 276 268 226 176 201 219 233 230 219 235 245 250 253 250 254 258 254 244 242 246 251 253 252 254 254 253 249 247 248 254
235 229 232 221 216 230 231 227 215 200 191 210 218 207 239 263 217 211 212 216 221 207 228 245 253 261 268 269 266 266 266 261 259 251 253 252 250 252 250 247 247 249 251
233 216 233 234 230 234 236 232 227 224 206 208 187 178 183 214 224 221 205 207 220 213 235 249 257 262 262 265 267 268 270 267 260 257 256 257 254 252 252 250 248 250 256
231 223 232 244 243 238 237 238 231 230 221 215 189 156 172 195 207 209 205 234 250 249 254 261 264 267 270 269 268 270 273 270 268 269 263 261 260 258 258 260 259 256 257
219 202 234 244 238 232 229 234 240 237 237 232 231 205 155 220 228 201 224 248 260 267 271 272 276 282 282 279 277 272 270 269 269 267 269 270 268 263 259 258 260 261 259
213 190 211 240 251 253 247 253 257 251 252 261 272 79 156 253 246 237 239 252 266 274 277 279 279 276 271 271 279 279 275 273 276 279 280 277 275 273 269 263 261 263 266
231 224 225 238 253 267 278 268 265 263 257 256 253 167 185 240 258 266 266 264 274 281 282 284 287 292 294 291 286 279 278 279 279 280 281 282 280 277 273 270 269 266 262
240 244 234 231 235 226 247 260 272 269 268 277 291 277 243 274 291 290 289 279 279 282 280 283 290 295 300 298 292 281 277 280 287 291 290 285 282 280 279 276 275 273 264
230 233 234 239 235 235 248 254 262 272 281 279 278 275 276 283 290 305 304 299 297 294 296 294 290 299 304 300 291 294 315 318 301 285 283 284 285 283 281 277 274 274 272
228 234 243 252 260 260 260 267 273 280 287 286 281 280 274 275 295 313 322 320 314 321 331 325 312 310 314 312 317 341 19 359 321 306 285 278 281 284 281 278 276 272 271
299 287 265 265 269 272 282 291 293 290 280 283 288 295 303 305 311 322 334 333 325 332 339 335 336 337 334 327 350 16 26 332 309 295 285 280 277 277 282 279 278 275 270